< < Back
Terminal Aerodrome Forecast


Current Version              Previous Versions:   1  2  3  4  5  6  7  8  9  

Terminal Aerodrome Forecast

903
FTUS42 KFFC 311100
TAFCSG
TAF
KCSG 311130Z 3112/0112 04003KT P6SM BKN200
     FM311600 11004KT P6SM SCT040 SCT150
     FM311800 09005KT P6SM BKN050
     FM010000 07005KT P6SM BKN150
     FM010900 06008KT 6SM BR BKN008=



Latest METAR

686
SAUS70 KWBC 311400 RRT
MTRCSG
METAR KCSG 311551Z 00000KT 10SM CLR 28/17 A3004 RMK AO2 SLP167
T02830172


USA.gov is the U.S. government's official web portal to all federal, state and local government web resources and services.